THY250 EDDK-LOWG

Flight info

Callsign THY250
Flight time N/A
Altitude 33000
Route KUMIK2Q KUMIK Y854 BOMBI T104 ELMOX/N0450F310 T104 WLD/N0448F350 T702 BADIT DCT LEOBE LEOBE2M
Aircraft A320/M-SDE3FGHIRWY/LB1

Departure

Time N/A
Airport Cologne Bonn Airport (EDDK)

Arrival

Time 2026-05-06 22:54
Airport Graz Airport (LOWG)
Time Latitude Longitude Altitude Speed Heading
2026-05-06 22:22 48.52657 11.35490 32868 ft 455 kts 114°
2026-05-06 22:22 48.51594 11.39981 32875 ft 455 kts 115°
2026-05-06 22:22 48.49455 11.48981 32883 ft 456 kts 115°
2026-05-06 22:23 48.47307 11.57998 32895 ft 458 kts 115°
2026-05-06 22:23 48.45154 11.67029 32899 ft 458 kts 115°
2026-05-06 22:24 48.42982 11.76069 32893 ft 460 kts 115°
2026-05-06 22:24 48.40780 11.85133 32903 ft 461 kts 115°
2026-05-06 22:25 48.38596 11.94122 32907 ft 461 kts 115°
2026-05-06 22:25 48.36391 12.03197 32913 ft 461 kts 115°
2026-05-06 22:26 48.34173 12.12254 32880 ft 461 kts 116°
2026-05-06 22:26 48.31943 12.21308 32895 ft 463 kts 116°
2026-05-06 22:27 48.29705 12.30375 32908 ft 464 kts 116°
2026-05-06 22:27 48.27454 12.39464 32914 ft 464 kts 116°
2026-05-06 22:28 48.25192 12.48557 32922 ft 465 kts 116°
2026-05-06 22:28 48.22934 12.57572 32927 ft 465 kts 116°
2026-05-06 22:29 48.20662 12.66649 32933 ft 465 kts 116°
2026-05-06 22:29 48.18385 12.75724 32937 ft 465 kts 116°
2026-05-06 22:30 48.16000 12.84708 32938 ft 460 kts 123°
2026-05-06 22:30 48.13038 12.93179 32899 ft 459 kts 124°
2026-05-06 22:31 48.10057 13.01635 32912 ft 459 kts 124°
2026-05-06 22:31 48.07069 13.10082 32931 ft 459 kts 124°
2026-05-06 22:32 48.04079 13.18528 32936 ft 459 kts 124°
2026-05-06 22:32 48.01083 13.26960 32935 ft 459 kts 124°
2026-05-06 22:33 47.98079 13.35367 32927 ft 459 kts 125°
2026-05-06 22:33 47.95068 13.43769 32937 ft 459 kts 125°
2026-05-06 22:34 47.92077 13.52113 32981 ft 459 kts 125°
2026-05-06 22:34 47.89068 13.60485 32945 ft 458 kts 125°
2026-05-06 22:35 47.87559 13.64668 32435 ft 459 kts 126°
2026-05-06 22:35 47.86022 13.68903 31345 ft 468 kts 126°
2026-05-06 22:35 47.84471 13.73167 30474 ft 468 kts 126°
2026-05-06 22:35 47.82911 13.77459 29313 ft 471 kts 125°
2026-05-06 22:36 47.81385 13.81679 28670 ft 457 kts 125°
2026-05-06 22:36 47.79892 13.85811 28063 ft 452 kts 125°
2026-05-06 22:36 47.78403 13.89912 27439 ft 448 kts 125°
2026-05-06 22:36 47.76921 13.93981 26795 ft 445 kts 125°
2026-05-06 22:37 47.75450 13.98004 26175 ft 442 kts 125°
2026-05-06 22:37 47.73985 14.02001 25526 ft 438 kts 125°
2026-05-06 22:37 47.72528 14.05960 24951 ft 435 kts 124°
2026-05-06 22:37 47.71081 14.09887 24332 ft 432 kts 124°
2026-05-06 22:38 47.69645 14.13789 23726 ft 430 kts 124°
2026-05-06 22:38 47.68215 14.17668 23066 ft 427 kts 124°
2026-05-06 22:38 47.66801 14.21507 22473 ft 421 kts 124°
2026-05-06 22:38 47.65403 14.25300 21905 ft 416 kts 124°
2026-05-06 22:39 47.64020 14.29050 21357 ft 413 kts 124°
2026-05-06 22:39 47.62645 14.32768 20822 ft 409 kts 124°
2026-05-06 22:39 47.61282 14.36443 20311 ft 405 kts 124°
2026-05-06 22:39 47.59927 14.40087 19791 ft 402 kts 124°
2026-05-06 22:40 47.58583 14.43694 19303 ft 399 kts 124°
2026-05-06 22:40 47.57244 14.47284 18800 ft 396 kts 124°
2026-05-06 22:40 47.55915 14.50841 18303 ft 394 kts 124°
2026-05-06 22:40 47.54590 14.54381 17753 ft 392 kts 124°
2026-05-06 22:41 47.51969 14.61385 16678 ft 385 kts 124°
2026-05-06 22:41 47.50678 14.64834 16151 ft 381 kts 124°
2026-05-06 22:41 47.49397 14.68250 15604 ft 378 kts 124°
2026-05-06 22:42 47.48139 14.71594 15071 ft 377 kts 124°
2026-05-06 22:42 47.46861 14.74982 14502 ft 377 kts 123°
2026-05-06 22:42 47.45589 14.78355 13963 ft 376 kts 123°
2026-05-06 22:42 47.44318 14.81723 13363 ft 374 kts 123°
2026-05-06 22:43 47.43053 14.85068 12798 ft 372 kts 122°
2026-05-06 22:43 47.41793 14.88398 12251 ft 370 kts 123°
2026-05-06 22:43 47.40540 14.91708 11687 ft 369 kts 122°
2026-05-06 22:43 47.39291 14.95006 11133 ft 368 kts 122°
2026-05-06 22:44 47.38040 14.98299 10594 ft 367 kts 122°
2026-05-06 22:44 47.36841 15.01552 10450 ft 356 kts 118°
2026-05-06 22:44 47.36029 15.04939 10318 ft 346 kts 105°
2026-05-06 22:44 47.35514 15.08350 10198 ft 335 kts 105°
2026-05-06 22:45 47.35015 15.11646 10064 ft 325 kts 105°
2026-05-06 22:45 47.34524 15.14841 9934 ft 315 kts 105°
2026-05-06 22:45 47.34039 15.17967 9638 ft 312 kts 105°
2026-05-06 22:45 47.33550 15.21094 9210 ft 310 kts 105°
2026-05-06 22:46 47.33069 15.24180 8567 ft 308 kts 105°
2026-05-06 22:46 47.32595 15.27238 7987 ft 304 kts 105°
2026-05-06 22:46 47.32138 15.30189 7828 ft 285 kts 107°
2026-05-06 22:46 47.31419 15.32742 7638 ft 266 kts 129°
2026-05-06 22:47 47.30191 15.34639 7420 ft 250 kts 150°
2026-05-06 22:47 47.28663 15.35759 7053 ft 241 kts 171°
2026-05-06 22:47 47.27027 15.36240 6725 ft 239 kts 174°
2026-05-06 22:47 47.25386 15.36685 6397 ft 239 kts 175°
2026-05-06 22:48 47.23755 15.37136 6063 ft 238 kts 175°
2026-05-06 22:48 47.22146 15.37583 5717 ft 231 kts 175°
2026-05-06 22:48 47.20587 15.38014 5421 ft 225 kts 174°
2026-05-06 22:48 47.19074 15.38433 5131 ft 218 kts 174°
2026-05-06 22:49 47.17604 15.38846 4864 ft 212 kts 174°
2026-05-06 22:49 47.16173 15.39247 4606 ft 206 kts 173°
2026-05-06 22:49 47.14799 15.39632 4317 ft 196 kts 174°
2026-05-06 22:49 47.13517 15.39993 4065 ft 178 kts 173°
2026-05-06 22:50 47.12352 15.40322 3820 ft 164 kts 173°
2026-05-06 22:50 47.11273 15.40623 3604 ft 157 kts 176°
2026-05-06 22:50 47.10242 15.40908 3429 ft 148 kts 176°
2026-05-06 22:50 47.09232 15.41185 3225 ft 145 kts 176°
2026-05-06 22:51 47.08251 15.41455 2999 ft 142 kts 175°
2026-05-06 22:51 47.07300 15.41716 2780 ft 140 kts 175°
2026-05-06 22:51 47.06352 15.41976 2554 ft 138 kts 175°
2026-05-06 22:51 47.05412 15.42246 2297 ft 137 kts 174°
2026-05-06 22:52 47.04467 15.42492 2023 ft 138 kts 174°
2026-05-06 22:52 47.03504 15.42763 1807 ft 142 kts 171°
2026-05-06 22:52 47.02535 15.43042 1601 ft 142 kts 171°
2026-05-06 22:52 47.01557 15.43300 1404 ft 143 kts 169°
2026-05-06 22:53 47.00579 15.43570 1213 ft 143 kts 171°
2026-05-06 22:53 46.99613 15.43829 1111 ft 132 kts 172°
2026-05-06 22:53 46.98870 15.44027 1104 ft 84 kts 169°
2026-05-06 22:53 46.98436 15.44146 1100 ft 54 kts 169°
2026-05-06 22:54 46.98087 15.44245 1094 ft 35 kts 169°
2026-05-06 22:54 46.97873 15.44304 1092 ft 24 kts 172°
2026-05-06 22:54 46.97791 15.44341 1092 ft 6 kts 68°
2026-05-06 22:54 46.97837 15.44334 1090 ft 9 kts 330°
2026-05-06 22:55 46.97899 15.44301 1090 ft 10 kts 346°
2026-05-06 22:55 46.98004 15.44267 1090 ft 22 kts 348°
2026-05-06 22:55 46.98174 15.44221 1095 ft 26 kts 350°
2026-05-06 22:55 46.98350 15.44170 1099 ft 26 kts 348°
2026-05-06 22:56 46.98529 15.44121 1100 ft 27 kts 349°
2026-05-06 22:56 46.98714 15.44071 1103 ft 27 kts 350°
2026-05-06 22:56 46.98902 15.44019 1105 ft 28 kts 349°
2026-05-06 22:56 46.99098 15.43967 1109 ft 28 kts 349°
2026-05-06 22:57 46.99270 15.43988 1108 ft 25 kts 44°
2026-05-06 22:57 46.99390 15.44175 1106 ft 26 kts 48°
2026-05-06 22:57 46.99509 15.44254 1107 ft 18 kts 347°
2026-05-06 22:57 46.99635 15.44220 1111 ft 19 kts 349°
2026-05-06 22:58 46.99751 15.44187 1115 ft 11 kts 349°
2026-05-06 22:58 46.99808 15.44223 1114 ft 8 kts 67°
2026-05-06 22:58 46.99828 15.44252 1114 ft 3 kts
2026-05-06 22:58 46.99849 15.44248 1108 ft 3 kts 348°
2026-05-06 22:59 46.99865 15.44244 1113 ft 2 kts 351°
2026-05-06 22:59 46.99879 15.44241 1113 ft 2 kts 351°
2026-05-06 22:59 46.99885 15.44240 1110 ft 0 kts 351°